| time (UTC) | temp C | wind direction | speed KPH | gust KPH | rain 1hr cm | rain 24hr cm | rain mn cm | humidity % | barometer mb |
| 20260504151006 | 18 | 230 | 19.3 | 24.1 | 0.00 | 0.00 | 0.00 | 55 | 1006.0 |
| 20260504141005 | 16 | 241 | 20.9 | 20.9 | 0.00 | 0.00 | 0.00 | 58 | 1006.3 |
| 20260504082005 | 10 | 238 | 0.0 | 0.0 | 0.00 | 0.00 | 0.00 | 68 | 1007.5 |
| 20260504081005 | 10 | 236 | 0.0 | 0.0 | 0.00 | 0.00 | 0.00 | 67 | 1007.5 |
| 20260504050007 | 11 | 224 | 0.0 | 0.0 | 0.00 | 0.00 | 0.00 | 62 | 1009.7 |
| 20260504045005 | 11 | 224 | 0.0 | 0.0 | 0.00 | 0.00 | 0.00 | 62 | 1009.9 |
| 20260504044005 | 11 | 223 | 0.0 | 0.0 | 0.00 | 0.00 | 0.00 | 64 | 1010.1 |
| 20260504043006 | 11 | 219 | 0.0 | 0.0 | 0.00 | 0.00 | 0.00 | 64 | 1010.1 |
| 20260504042006 | 10 | 205 | 0.0 | 0.0 | 0.00 | 0.00 | 0.00 | 65 | 1009.8 |
| 20260504040005 | 10 | 233 | 0.0 | 0.0 | 0.00 | 0.00 | 0.00 | 65 | 1010.4 |
| 20260504035006 | 10 | 218 | 0.0 | 0.0 | 0.00 | 0.00 | 0.00 | 65 | 1010.4 |
| 20260504034004 | 10 | 202 | 0.0 | 0.0 | 0.00 | 0.00 | 0.00 | 65 | 1010.4 |
| 20260504033005 | 10 | 223 | 0.0 | 0.0 | 0.00 | 0.00 | 0.00 | 65 | 1010.5 |
| 20260504031004 | 10 | 243 | 0.0 | 0.0 | 0.00 | 0.00 | 0.00 | 66 | 1010.7 |
| 20260504030005 | 10 | 231 | 0.0 | 0.0 | 0.00 | 0.00 | 0.00 | 66 | 1010.7 |
| 20260504025005 | 10 | 235 | 0.0 | 0.0 | 0.00 | 0.00 | 0.00 | 66 | 1011.0 |
| 20260504024005 | 10 | 229 | 0.0 | 0.0 | 0.00 | 0.00 | 0.00 | 68 | 1011.1 |
| 20260504023005 | 10 | 233 | 0.0 | 0.0 | 0.00 | 0.00 | 0.00 | 69 | 1011.0 |
| 20260504021005 | 10 | 209 | 0.0 | 0.0 | 0.00 | 0.00 | 0.00 | 69 | 1011.0 |
| 20260504020005 | 10 | 228 | 0.0 | 0.0 | 0.00 | 0.00 | 0.00 | 69 | 1011.2 |
| 20260504015005 | 10 | 228 | 0.0 | 0.0 | 0.00 | 0.00 | 0.00 | 68 | 1011.1 |
| 20260504014005 | 10 | 231 | 0.0 | 0.0 | 0.00 | 0.00 | 0.00 | 67 | 1011.1 |
| 20260504013004 | 10 | 238 | 0.0 | 0.0 | 0.00 | 0.00 | 0.00 | 66 | 1011.3 |
| 20260504012004 | 10 | 238 | 0.0 | 0.0 | 0.00 | 0.00 | 0.00 | 65 | 1011.1 |
| 20260504011005 | 11 | 233 | 0.0 | 0.0 | 0.00 | 0.00 | 0.00 | 65 | 1011.2 |
| 20260504010005 | 11 | 241 | 0.0 | 0.0 | 0.00 | 0.00 | 0.00 | 64 | 1011.6 |
| 20260504005006 | 11 | 242 | 0.0 | 0.0 | 0.00 | 0.00 | 0.00 | 64 | 1011.5 |
| 20260504004005 | 11 | 247 | 0.0 | 0.0 | 0.00 | 0.00 | 0.00 | 64 | 1011.4 |
| 20260504003005 | 11 | 248 | 0.0 | 0.0 | 0.00 | 0.00 | 0.00 | 64 | 1011.4 |
| 20260504002004 | 11 | 240 | 1.6 | 11.3 | 0.00 | 0.00 | 0.00 | 63 | 1011.4 |
| 20260504001004 | 11 | 237 | 9.7 | 16.1 | 0.00 | 0.00 | 0.00 | 62 | 1011.5 |
| 20260504000004 | 11 | 253 | 14.5 | 16.1 | 0.00 | 0.00 | 0.00 | 61 | 1011.7 |
| 20260503235004 | 11 | 237 | 11.3 | 16.1 | 0.00 | 0.00 | 0.00 | 61 | 1011.7 |
| 20260503233005 | 11 | 237 | 14.5 | 25.7 | 0.00 | 0.00 | 0.00 | 60 | 1011.9 |
| 20260503232005 | 11 | 240 | 27.4 | 38.6 | 0.00 | 0.00 | 0.00 | 57 | 1012.0 |
| 20260503231004 | 12 | 233 | 25.7 | 29.0 | 0.00 | 0.00 | 0.00 | 57 | 1012.2 |
| 20260503230004 | 12 | 239 | 20.9 | 27.4 | 0.00 | 0.00 | 0.00 | 58 | 1012.2 |
| 20260503225004 | 12 | 234 | 27.4 | 33.8 | 0.00 | 0.00 | 0.00 | 56 | 1012.2 |
| 20260503223005 | 14 | 241 | 29.0 | 38.6 | 0.00 | 0.00 | 0.00 | 49 | 1012.2 |
| 20260503222005 | 14 | 236 | 40.2 | 46.7 | 0.00 | 0.00 | 0.00 | 47 | 1012.0 |
| 20260503221004 | 15 | 236 | 40.2 | 46.7 | 0.00 | 0.00 | 0.00 | 45 | 1011.9 |
| 20260503220004 | 16 | 246 | 35.4 | 51.5 | 0.00 | 0.00 | 0.00 | 40 | 1011.7 |
| 20260503214004 | 16 | 243 | 33.8 | 51.5 | 0.00 | 0.00 | 0.00 | 34 | 1011.5 |
| 20260503213005 | 16 | 240 | 32.2 | 45.1 | 0.00 | 0.00 | 0.00 | 35 | 1011.8 |
| 20260503212004 | 16 | 250 | 38.6 | 37.0 | 0.00 | 0.00 | 0.00 | 34 | 1011.7 |
| 20260503211004 | 16 | 233 | 29.0 | 35.4 | 0.00 | 0.00 | 0.00 | 34 | 1011.7 |
| 20260503205004 | 16 | 238 | 35.4 | 37.0 | 0.00 | 0.00 | 0.00 | 31 | 1011.9 |
| 20260503204005 | 16 | 240 | 41.8 | 48.3 | 0.00 | 0.00 | 0.00 | 31 | 1012.1 |
| 20260503203004 | 16 | 232 | 35.4 | 45.1 | 0.00 | 0.00 | 0.00 | 29 | 1012.0 |
| 20260503202004 | 16 | 238 | 27.4 | 33.8 | 0.00 | 0.00 | 0.00 | 33 | 1012.1 |
| 20260503201005 | 16 | 239 | 37.0 | 46.7 | 0.00 | 0.00 | 0.00 | 30 | 1012.4 |
| 20260503195005 | 17 | 221 | 27.4 | 41.8 | 0.00 | 0.00 | 0.00 | 29 | 1012.3 |
| 20260503194005 | 17 | 236 | 27.4 | 45.1 | 0.00 | 0.00 | 0.00 | 30 | 1012.4 |
| 20260503193004 | 17 | 228 | 20.9 | 45.1 | 0.00 | 0.00 | 0.00 | 31 | 1012.7 |
| 20260503192004 | 17 | 234 | 33.8 | 41.8 | 0.00 | 0.00 | 0.00 | 31 | 1012.7 |
| 20260503190004 | 16 | 223 | 27.4 | 37.0 | 0.00 | 0.00 | 0.00 | 30 | 1013.1 |
| 20260503185005 | 17 | 240 | 27.4 | 45.1 | 0.00 | 0.00 | 0.00 | 32 | 1013.2 |
| 20260503184004 | 17 | 236 | 35.4 | 35.4 | 0.00 | 0.00 | 0.00 | 29 | 1013.4 |
| 20260503183004 | 17 | 237 | 32.2 | 46.7 | 0.00 | 0.00 | 0.00 | 29 | 1013.4 |
| 20260503182005 | 16 | 240 | 32.2 | 37.0 | 0.00 | 0.00 | 0.00 | 29 | 1013.4 |
| 20260503181005 | 16 | 236 | 38.6 | 45.1 | 0.00 | 0.00 | 0.00 | 31 | 1013.5 |
| 20260503180005 | 16 | 232 | 27.4 | 41.8 | 0.00 | 0.00 | 0.00 | 32 | 1013.7 |
| 20260503175004 | 16 | 240 | 29.0 | 41.8 | 0.00 | 0.00 | 0.00 | 28 | 1014.0 |
| 20260503174006 | 16 | 238 | 33.8 | 46.7 | 0.00 | 0.00 | 0.00 | 29 | 1014.2 |
| 20260503173004 | 16 | 232 | 35.4 | 48.3 | 0.00 | 0.00 | 0.00 | 27 | 1014.2 |
| 20260503172005 | 16 | 236 | 33.8 | 45.1 | 0.00 | 0.00 | 0.00 | 32 | 1014.4 |